Theta_e
324 324 323 323 323 323 323 322 322 322 322 323 323 323 324 324 324 325 326 327 328 328 328 328 327 327 326 327 326 326 325 324 324 323 322 321 321 320 319 319 318 317
324 324 322 323 323 322 322 323 323 322 322 322 323 323 324 323 323 324 325 326 326 327 328 328 327 327 327 326 326 326 325 324 323 323 322 321 321 320 319 319 318 318
323 323 323 322 323 322 322 322 322 322 322 323 323 323 323 322 323 323 324 325 325 326 326 327 327 327 326 326 325 325 324 324 323 323 321 321 321 320 320 319 319 318
319 321 322 322 322 322 321 321 321 322 322 321 322 322 322 322 322 322 323 318 324 324 325 326 325 326 326 326 325 323 323 324 324 323 321 321 321 321 320 320 318 318
316 317 319 320 321 321 321 320 320 320 320 321 321 319 318 318 319 321 321 321 322 322 323 324 325 325 324 325 325 324 322 322 322 322 321 320 320 319 320 318 317 315
311 314 315 316 317 317 318 319 320 319 319 317 318 314 317 317 318 319 319 319 320 321 321 322 323 323 323 323 323 323 322 320 319 320 320 319 318 318 318 317 315 312
308 308 309 311 310 311 314 315 316 315 316 316 312 315 314 315 315 316 318 318 319 319 321 321 321 321 322 321 320 320 321 320 317 317 317 317 315 313 313 314 313 312
305 304 306 306 307 308 309 310 310 311 312 309 311 313 312 315 315 315 315 317 318 319 319 320 320 320 318 317 318 319 319 319 317 315 314 313 309 310 309 310 309 309
300 301 301 301 302 302 302 303 303 300 301 304 306 307 306 312 313 313 314 316 317 318 319 319 319 318 318 317 316 316 316 317 317 316 315 311 308 308 307 306 305 304
297 296 295 296 297 297 298 297 299 299 297 299 301 300 305 307 309 312 312 314 316 316 317 317 317 316 316 316 317 316 315 314 312 313 314 312 310 308 307 305 305 302
293 292 293 294 295 294 295 296 297 298 297 301 300 303 306 307 307 308 311 311 312 312 313 313 314 315 315 314 314 315 315 314 312 311 311 310 309 308 302 306 304 303
289 290 291 292 294 295 297 299 303 303 306 306 304 309 307 307 308 307 306 308 308 310 310 310 309 311 313 314 314 313 312 312 311 310 310 309 308 308 307 306 304 303
293 293 293 292 293 296 298 300 301 301 302 304 304 306 306 307 305 306 305 308 310 309 309 310 311 311 311 311 312 311 310 309 307 307 306 305 305 305 305 305 303 301
296 296 297 299 300 299 299 298 299 299 299 299 297 301 302 303 305 306 307 306 308 309 310 308 309 310 310 310 310 309 308 307 307 306 304 303 300 299 299 300 300 299
295 296 296 296 296 297 297 299 299 297 294 294 294 297 298 298 300 302 302 302 301 301 303 303 305 306 307 307 307 306 306 306 306 304 301 299 298 297 297 297 297 296
295 295 296 294 294 294 294 292 291 292 292 293 294 291 291 291 292 293 294 297 297 297 296 299 301 303 299 299 300 305 305 305 303 298 296 296 295 294 294 294 295 295
294 293 291 292 293 290 290 290 291 290 290 290 290 291 291 291 290 293 293 292 293 295 295 296 298 300 296 299 300 300 303 302 301 299 297 296 295 295 294 293 292 293
294 293 291 290 289 290 289 289 288 289 289 289 289 290 289 289 290 291 291 291 292 292 293 294 295 294 297 297 298 299 298 299 297 297 295 295 294 294 294 292 291 291
291 291 290 289 288 288 288 289 289 289 288 289 289 288 288 290 289 289 290 289 290 292 292 292 292 293 295 296 296 297 298 296 295 295 294 293 293 293 293 292 291 290
289 289 289 289 288 288 289 289 289 288 288 288 288 288 288 288 288 288 288 289 289 289 290 291 291 292 294 295 295 296 297 297 295 294 293 293 293 292 292 291 291 290
289 289 289 288 288 288 288 288 288 288 288 288 288 288 288 288 288 288 288 288 288 288 289 290 291 292 293 294 295 295 296 295 293 292 291 291 291 291 291 291 291 290
288 288 288 288 288 287 288 287 288 288 288 287 288 288 288 288 288 288 288 288 288 288 288 289 289 291 292 293 294 295 296 293 291 291 291 290 290 290 290 290 290 289
288 288 288 287 287 287 287 287 287 287 287 287 288 288 287 288 287 287 287 288 288 287 288 288 288 288 290 292 293 294 294 290 289 290 289 289 289 288 288 288 288 288
288 288 288 287 287 287 287 287 287 287 287 287 288 287 287 287 287 287 287 287 287 287 287 288 288 287 290 291 292 293 291 289 288 288 288 288 286 286 286 286 287 286
288 287 288 287 287 287 287 288 287 287 287 287 287 288 287 287 287 287 286 286 286 287 287 287 286 286 289 291 292 293 290 288 288 288 288 287 287 286 285 286 285 285
288 288 287 287 287 287 287 287 287 287 287 287 287 287 286 286 286 286 286 286 286 286 286 286 286 286 286 290 291 292 292 288 288 288 288 287 286 286 285 284 284 284
Wind_Speed
12 11 12 12 12 12 12 12 11 11 11 10 11 11 11 10 8 10 11 11 13 13 13 12 12 12 12 12 13 12 11 12 11 11 12 12 12 13 13 13 12 10
13 12 10 10 10 10 10 10 9 10 11 11 10 10 9 9 9 9 11 11 12 13 13 13 12 12 12 12 13 13 12 12 12 9 11 13 12 12 13 14 13 11
10 10 10 11 11 11 11 10 10 10 11 11 10 10 10 8 10 10 11 12 12 13 13 12 13 13 13 12 11 12 13 13 13 11 11 12 11 12 12 12 11 13
7 8 8 9 9 10 9 9 10 10 9 10 10 9 9 8 9 10 11 12 12 11 11 11 12 13 13 12 11 9 11 13 13 12 12 11 11 12 12 11 11 11
8 9 9 9 9 9 8 9 11 9 9 10 8 7 7 7 8 9 9 10 10 10 10 11 12 12 11 11 12 12 10 9 10 12 12 13 11 11 11 11 11 12
7 7 7 7 7 7 8 9 9 8 8 7 8 5 7 7 7 9 9 10 9 10 10 11 11 11 9 10 10 12 11 9 9 11 13 14 12 11 11 11 11 10
7 5 5 5 5 5 6 7 7 7 7 6 5 7 5 6 7 8 8 9 10 10 11 11 10 9 8 9 9 10 11 12 10 11 12 11 11 12 10 11 12 12
5 4 4 4 5 5 6 5 5 5 5 5 5 6 5 7 7 7 7 9 10 11 11 10 9 8 7 7 9 12 11 9 10 10 10 8 7 9 9 8 9 10
4 5 4 5 5 5 5 5 5 5 4 4 5 5 5 6 7 7 8 9 10 10 11 10 10 9 8 8 9 9 11 12 12 11 11 9 8 8 7 6 7 8
5 4 5 5 5 4 5 5 5 5 4 4 4 4 4 5 5 5 6 7 8 10 11 12 12 10 10 10 11 11 10 9 8 10 13 12 12 11 10 9 10 9
5 5 5 5 5 4 5 5 4 4 4 5 4 4 4 4 4 4 5 6 7 6 5 6 8 10 9 7 7 8 10 10 10 10 10 10 11 11 11 12 11 12
4 4 4 4 4 4 4 4 5 5 5 5 4 5 4 4 4 4 4 4 5 5 5 4 4 4 7 10 11 10 9 9 9 10 11 11 12 13 14 13 13 12
4 4 4 4 4 4 5 4 5 4 4 5 5 5 5 6 5 5 5 5 6 5 5 6 6 6 6 7 7 8 9 9 8 9 9 7 8 9 11 13 12 11
3 3 3 4 4 4 4 4 4 4 4 4 4 4 4 4 5 5 6 5 7 8 8 7 8 8 8 8 8 8 8 9 9 10 10 9 8 7 6 8 10 12
3 3 3 3 3 3 3 4 4 4 4 5 4 5 4 4 4 4 5 5 5 4 5 4 5 6 6 7 7 8 8 10 10 10 10 10 8 8 9 9 9 9
3 4 3 3 3 3 3 3 3 4 4 4 4 3 3 3 3 3 3 4 5 5 5 5 5 5 8 12 11 9 8 9 8 7 7 7 7 7 7 7 9 9
1 1 3 4 4 3 3 3 3 3 3 3 3 4 4 4 3 4 4 4 4 4 5 5 6 6 10 11 13 14 9 7 9 9 8 8 9 9 10 9 7 5
2 2 3 3 3 3 3 3 2 3 3 3 3 4 3 3 3 3 4 4 4 4 5 6 6 8 9 10 11 12 11 7 6 6 7 8 8 9 8 7 5 5
3 3 3 2 3 2 2 2 1 2 3 3 3 3 3 3 3 3 4 3 3 4 5 5 5 7 8 9 9 9 10 8 5 6 7 7 7 8 8 8 8 7
3 2 3 3 2 1 1 1 1 2 2 2 2 2 2 3 3 3 3 3 3 4 5 5 6 7 7 8 8 9 10 9 5 6 6 6 7 7 6 6 7 9
2 3 3 2 1 1 1 1 2 2 2 2 1 2 2 3 3 3 3 3 3 3 4 5 5 6 7 8 8 8 9 8 4 4 4 4 5 5 6 7 8 9
2 2 2 2 2 1 2 2 2 1 2 1 1 1 1 1 2 1 3 4 3 3 4 6 4 5 6 7 8 8 8 5 4 5 5 5 5 5 5 5 6 8
2 2 2 2 2 2 2 2 2 2 2 0 1 1 2 2 2 2 2 3 4 3 4 5 4 5 6 6 6 6 5 3 3 3 3 3 2 2 3 3 4 6
2 2 2 2 1 1 2 2 1 1 1 0 1 2 2 2 2 2 2 2 2 3 3 4 4 5 6 4 4 4 4 3 2 2 1 1 1 2 2 3 4 6
1 1 1 1 1 1 1 1 1 1 0 0 0 0 1 1 1 1 2 2 2 2 4 3 3 4 6 6 4 2 3 2 3 3 3 3 3 3 2 3 3 4
1 1 0 0 0 0 0 0 0 1 1 1 1 1 1 1 1 2 2 2 3 3 3 3 3 4 4 6 5 4 1 1 1 2 4 4 3 3 4 3 3 4
Wind_Direction
217 215 219 220 224 226 227 226 226 229 230 229 227 229 227 229 218 217 219 220 221 223 221 222 221 222 224 223 222 223 221 219 216 210 204 201 206 201 204 202 201 201
219 220 221 223 229 228 233 231 232 229 234 231 232 233 230 223 219 212 215 218 218 220 219 219 219 222 223 224 222 222 221 216 217 206 205 204 205 203 206 201 203 201
223 223 222 225 229 232 231 230 230 230 231 231 230 228 229 215 218 213 215 216 218 220 218 219 220 223 226 226 224 222 220 217 216 204 206 208 204 205 207 203 206 202
236 231 230 230 229 233 227 226 229 232 231 233 231 229 223 219 214 216 217 216 220 220 219 218 222 225 226 227 224 228 226 219 212 201 207 208 207 206 206 202 206 205
228 230 227 229 230 230 227 228 232 232 233 237 239 232 228 221 216 219 217 217 218 222 218 221 223 227 224 226 225 229 227 231 220 205 205 210 209 205 207 201 203 205
232 228 232 234 237 236 239 241 243 242 241 243 237 226 225 221 217 217 213 214 214 218 220 221 225 226 223 226 224 226 222 222 225 217 210 209 208 204 200 197 198 202
241 243 248 250 252 244 246 247 249 244 244 239 235 234 221 222 219 215 212 213 213 215 219 222 223 225 222 219 224 230 222 214 213 218 218 216 202 202 202 195 196 195
280 281 276 273 265 261 254 256 253 251 248 252 241 244 220 225 220 215 211 210 212 213 217 220 216 217 213 220 224 219 224 223 208 208 222 217 201 203 194 190 189 191
288 289 298 289 289 284 286 281 279 276 278 256 254 252 241 231 222 216 214 212 210 210 210 211 212 214 211 213 223 232 229 219 214 210 212 207 201 200 191 179 180 185
307 311 316 305 303 297 297 296 296 292 296 287 269 262 253 247 232 222 215 211 213 213 210 208 208 206 209 210 218 221 224 226 228 219 212 206 198 190 186 183 185 179
324 330 322 310 303 303 301 307 307 305 307 295 292 290 263 256 249 236 219 212 222 230 226 214 207 205 207 216 227 231 230 223 213 212 215 207 197 191 189 189 187 186
332 339 334 321 316 315 309 311 307 302 300 296 294 291 282 266 249 244 244 256 260 252 242 241 241 216 209 213 214 220 227 228 222 216 214 209 202 196 193 189 187 189
320 320 313 313 317 317 317 321 316 306 292 280 277 268 270 265 255 252 251 246 245 240 238 236 236 235 236 230 223 221 221 218 214 214 214 219 224 212 199 196 188 182
264 267 283 282 284 286 303 314 311 308 306 302 308 297 285 282 277 262 258 247 249 246 241 231 227 224 223 225 223 217 213 215 212 210 208 204 199 202 211 201 186 180
243 263 271 283 288 285 272 272 285 297 310 319 321 312 304 296 300 300 291 281 277 272 275 271 256 242 231 223 221 217 209 212 211 208 204 202 201 201 202 202 194 186
251 263 270 282 281 284 297 304 302 303 307 309 309 303 294 282 294 293 286 271 272 275 268 265 255 248 239 234 222 213 209 211 207 203 201 201 192 189 195 201 195 194
244 331 337 322 309 310 307 316 309 305 304 302 300 308 317 328 334 309 289 284 278 277 281 266 258 252 249 239 229 220 214 208 202 202 194 191 194 192 196 195 197 198
199 248 263 276 301 296 297 291 302 320 317 312 312 317 317 328 313 289 295 291 286 280 266 261 256 256 258 255 239 228 215 209 204 198 196 197 195 193 193 191 174 175
214 223 251 269 273 273 283 313 326 321 324 330 316 303 321 325 307 320 301 307 290 278 274 273 275 274 273 263 252 236 223 205 200 198 192 195 192 194 194 187 178 171
210 219 237 248 256 268 282 295 315 294 291 289 299 334 331 317 321 316 315 312 303 284 286 290 276 289 275 263 251 233 218 202 204 200 200 196 195 190 186 174 175 175
209 215 235 253 237 224 233 255 269 291 313 313 321 297 305 302 306 316 307 305 301 294 287 283 285 309 290 269 258 238 222 205 196 189 187 194 193 192 192 190 187 188
217 234 243 236 224 231 236 256 271 279 291 304 331 330 334 319 318 315 307 312 305 308 297 288 302 325 299 279 258 244 222 204 191 192 194 194 192 190 192 199 195 187
218 222 233 225 225 240 292 324 327 324 316 323 315 344 338 341 317 319 321 310 310 311 304 297 313 334 321 298 279 252 202 193 179 185 202 204 210 191 189 189 197 202
216 205 214 223 212 248 298 310 310 329 311 327 328 320 320 299 294 333 3 353 329 316 326 312 322 330 322 305 284 230 180 165 138 133 116 113 98 141 174 204 216 215
198 184 194 192 205 242 239 272 261 264 295 72 78 109 306 315 355 18 15 15 14 1 3 358 341 332 332 329 313 229 157 155 162 169 181 193 181 200 198 204 214 214
76 122 141 149 214 332 116 193 124 84 56 72 43 76 61 39 34 38 29 14 6 12 7 5 358 339 338 333 333 316 206 113 117 167 216 208 200 199 200 218 213 206